Simultaneous Nadir Overpasses (SNOs) Predictions

Prediction of SNOs between NOAA-20 and TERRA Satellite Orbit:

Table of predicted SNOs for the next 14.0 days since TLE Epoch: 6/14/2024
Index Date (NOAA-20) Time (NOAA-20) Lat,Lon (NOAA-20) SZA (NOAA-20 ) Date (TERRA) Time (TERRA) Lat,Lon (TERRA) SZA (TERRA ) Distance(km) Time Diff (sec)
1 06/15/2024 09:11:33 72.24, 34.90 48.99 06/15/2024 09:11:46 72.24, 34.88 48.98 0.45 13
2 06/15/2024 10:02:15 -72.17,-157.64 131.10 06/15/2024 10:01:10 -72.19,-157.56 131.07 3.62 65
3 06/17/2024 20:23:52 72.33,-133.35 49.01 06/17/2024 20:24:59 72.32,-133.34 48.99 1.03 67
4 06/17/2024 21:14:33 -72.20, 34.22 131.13 06/17/2024 21:14:24 -72.21, 34.13 131.11 3.48 9
5 06/17/2024 22:05:04 71.41,-157.02 48.03 06/17/2024 22:03:57 71.46,-159.47 48.21 86.64 67
6 06/20/2024 08:26:53 -72.28,-134.03 131.06 06/20/2024 08:27:37 -72.31,-134.04 131.04 3.12 44
7 06/20/2024 09:17:38 72.22, 33.39 48.88 06/20/2024 09:16:58 72.21, 33.44 48.86 2.70 40
8 06/22/2024 20:29:57 72.27,-134.77 48.95 06/22/2024 20:30:11 72.27,-134.78 48.95 0.70 14
9 06/22/2024 21:20:39 -72.19, 32.70 131.14 06/22/2024 21:19:36 -72.17, 32.69 131.15 1.99 63
10 06/25/2024 07:42:17 72.37, 56.95 49.12 06/25/2024 07:43:23 72.37, 57.04 49.10 3.17 66
11 06/25/2024 08:32:58 -72.24,-135.48 131.03 06/25/2024 08:32:48 -72.26,-135.49 131.00 2.92 10
12 06/25/2024 09:23:28 71.41, 33.37 48.08 06/25/2024 09:22:22 71.45, 30.81 48.28 90.72 66
13 06/27/2024 19:45:18 -72.35, 56.23 130.81 06/27/2024 19:46:00 -72.33, 56.28 130.84 2.51 42
14 06/27/2024 20:36:02 72.24,-136.25 49.08 06/27/2024 20:35:21 72.22,-136.24 49.07 2.32 41



Historial Predications of SNOs between NOAA-20 and TERRA
